Home   Weather   Koror   Past weeks
Flag for Palau

Past Weather in Koror, Palau — Yesterday and Last 2 Weeks

Now
79 °F

Mostly cloudy.


Feels Like: 82 °F
Forecast: 86 / 82 °F
Wind: 10 mph from Southwest

Location: Koror / Palau Island

Current Time: Aug 20, 2019 at 9:41:47 pm

Latest Report: Aug 20, 2019 at 8:54 pm


Visibility: 13 mi

Pressure: 29.79 "Hg

Humidity: 84%

Dew Point: 73 °F

Location of KororLocation

Past Weather in Koror — Graph

°F

Koror Temperature Yesterday

Maximum temperature yesterday: 81 °F (at 2:50 am)
Minimum temperature yesterday: 75 °F (at 6:54 pm)
Average temperature yesterday: 78 °F

High & Low Weather Summary for the Past Weeks

 TemperatureHumidityPressure
High90 °F (Aug 13, 1:50 pm)100% (Aug 8, 7:50 am)29.92 "Hg (Aug 8, 7:50 am)
Low75 °F (Aug 16, 11:50 pm)22% (Aug 10, 5:50 am)29.68 "Hg (Aug 6, 2:50 pm)
Average81 °F82%29.82 "Hg
* Reported Aug 5 8:50 pm — Aug 20 8:31 pm, Koror. Weather by CustomWeather, © 2019

Note: Actual official high and low records may vary slightly from our data, if they occured in-between our weather recording intervals... More about our weather records

Advertising

Koror Weather History for the Previous 24 Hours

Scroll right to see more
 ConditionsComfort  
Time TempWeatherWind HumidityBarometerVisibility
8:31 pm
Tue, Aug 20
79 °FSprinkles. Mostly cloudy.9 mph84%29.79 "Hg10 mi
7:55 pm81 °FOvercast.9 mph84%29.77 "Hg13 mi
6:53 pm82 °FSprinkles. Mostly cloudy.8 mph79%29.77 "Hg9 mi
5:51 pm84 °FPartly sunny.10 mph74%29.74 "Hg14 mi
4:55 pm84 °FPartly sunny.12 mph74%29.73 "Hg15 mi
3:50 pm84 °FPartly sunny.10 mph74%29.73 "Hg15 mi
2:50 pm86 °FPartly sunny.13 mph70%29.71 "Hg15 mi
1:50 pm84 °FPartly sunny.14 mph74%29.74 "Hg15 mi
12:50 pm86 °FPartly sunny.14 mph70%29.75 "Hg15 mi
11:50 am86 °FPartly sunny.13 mph70%29.77 "Hg15 mi
9:50 am84 °FBroken clouds.12 mph74%29.80 "Hg15 mi
8:55 am84 °FBroken clouds.10 mph74%29.82 "Hg15 mi
7:50 am82 °FMore clouds than sun.6 mph79%29.81 "Hg14 mi
6:50 am81 °FMostly cloudy.8 mph84%29.78 "Hg14 mi
5:50 am79 °FOvercast.8 mph84%29.78 "Hg14 mi
4:50 am79 °FPartly cloudy.6 mph84%29.76 "Hg14 mi
3:50 am79 °FPartly cloudy.8 mph84%29.75 "Hg14 mi
2:50 am79 °FPartly cloudy.10 mph84%29.76 "Hg14 mi
1:50 am79 °FPartly cloudy.12 mph84%29.77 "Hg14 mi
12:50 am79 °FPartly cloudy.13 mph84%29.79 "Hg14 mi
11:54 pm
Mon, Aug 19
79 °FPartly cloudy.10 mph84%29.79 "Hg14 mi
10:55 pm79 °FPartly cloudy.13 mph84%29.81 "Hg14 mi
9:51 pm77 °FPartly cloudy.12 mph89%29.83 "Hg14 mi
Weather by CustomWeather, © 2019

See weather overview